Вернуться в каталог

STARLINK-30920

АктивенСвязьVLEO
NORAD 58378·PAYLOAD·🇺🇸 United States

Запущен Nov 20, 2023 с Vandenberg Space Force Base

Loading…

Ближайшие Пролёты (ближайшие 24 часа)

TLE

СвежийSource: CelesTrak SupGP

Эпоха: Sep 14, 2026, 13:30 UTC

1 58378C 23178E   26257.56298611  .00012911  00000+0  38167-3 0  2570
2 58378  53.1572 189.2403 0001325  88.8892 282.1989 15.34367088    12

Отслеживайте STARLINK-30920 в реальном времени с AllMySat

Download on the App Store